Home   Weather   Gdańsk   Past weeks

Flag for Poland Past Weather in Gdańsk, Poland — Yesterday and Last 2 Weeks

Now
39 °F

Drizzle. Broken clouds.


Feels Like: 30 °F
Forecast: 36 / 47 °F
Wind: 16 mph from Northwest

Location: Gdansk-Rebiechowo

Current Time: Apr 29, 2017 at 9:34:01 am

Latest Report: Apr 29, 2017 at 9:00 am


Visibility: 4 mi

Pressure: 29.86 "Hg

Humidity: 93%

Dew Point: 37 °F

Location of GdańskLocation

Past Weather in Gdańsk — Graph

°F

Gdańsk Temperature Yesterday

Maximum temperature yesterday: 45 °F (at 11:00 am)
Minimum temperature yesterday: 30 °F (at 4:00 am)
Average temperature yesterday: 39 °F

High & Low Weather Summary for the Past Weeks

 TemperatureHumidityPressure
High52 °F (Apr 21, 3:30 pm)100% (Apr 15, 6:00 am)30.51 "Hg (Apr 15, 6:00 am)
Low27 °F (Apr 17, 3:30 am)42% (Apr 20, 12:30 pm)29.50 "Hg (Apr 25, 10:00 am)
Average39 °F76%29.94 "Hg
* Reported Apr 14 8:00 am — Apr 29 8:00 am, Gdańsk, Weather by CustomWeather, © 2017

Note: Actual official high and low records may vary slightly from our data, if they occured in-between our weather recording intervals... More about our weather records

Advertising

Gdańsk Weather History for the Previous 24 Hours

Scroll right to see more
 ConditionsComfort  
Time TempWeatherWind HumidityBarometerVisibility
8:00 am
Sat, Apr 29
39 °FLight rain. Partly sunny.14 mph93%29.83 "HgN/A
7:30 am39 °FLight rain. Partly sunny.15 mph93%29.83 "HgN/A
7:00 am39 °FLight rain. Partly sunny.13 mph93%29.83 "Hg6 mi
6:30 am39 °FLight rain. Partly sunny.14 mph93%29.83 "HgN/A
6:00 am39 °FLight rain. Partly sunny.13 mph93%29.83 "HgN/A
5:30 am39 °FLight rain. Partly sunny.14 mph93%29.83 "Hg5 mi
5:00 am39 °FLight rain. Passing clouds.12 mph93%29.83 "HgN/A
4:30 am39 °FLight rain. Passing clouds.13 mph93%29.83 "HgN/A
4:00 am39 °FLight rain. Passing clouds.14 mph93%29.83 "Hg6 mi
3:00 am39 °FLight rain. Passing clouds.13 mph93%29.86 "Hg6 mi
2:30 am39 °FLight rain. Passing clouds.14 mph93%29.86 "HgN/A
2:00 am39 °FLight rain. Passing clouds.13 mph100%29.86 "Hg6 mi
1:30 am39 °FLight rain. Passing clouds.10 mph100%29.86 "Hg4 mi
1:00 am39 °FLight rain. Fog.12 mph100%29.86 "Hg3 mi
12:30 am41 °FLight rain. Fog.12 mph93%29.86 "Hg3 mi
12:00 am41 °FLight rain. Mostly cloudy.13 mph93%29.89 "Hg4 mi
11:30 pm
Fri, Apr 28
41 °FLight rain. Fog.13 mph93%29.89 "Hg2 mi
11:00 pm41 °FLight rain. Fog.12 mph93%29.89 "Hg3 mi
10:30 pm41 °FDrizzle. Fog.9 mph93%29.89 "Hg2 mi
10:00 pm41 °FLight rain. Fog.10 mph93%29.89 "Hg2 mi
9:30 pm41 °FDrizzle. Fog.10 mph93%29.92 "Hg3 mi
9:00 pm41 °FLight rain. Partly cloudy.10 mph93%29.92 "Hg4 mi
8:30 pm41 °FLight rain. Fog.9 mph87%29.92 "Hg3 mi
8:00 pm41 °FLight rain. Partly sunny.8 mph87%29.92 "HgN/A
7:30 pm41 °FLight rain. Partly sunny.8 mph87%29.92 "HgN/A
7:00 pm41 °FLight rain. Partly sunny.8 mph87%29.92 "HgN/A
6:30 pm43 °FLight rain. Partly sunny.7 mph81%29.92 "HgN/A
6:00 pm43 °FLight rain. Overcast.8 mph81%29.92 "HgN/A
5:30 pm43 °FLight rain. Overcast.9 mph81%29.92 "HgN/A
5:00 pm43 °FLight rain. Scattered clouds.9 mph76%29.92 "HgN/A
4:30 pm45 °FScattered clouds.9 mph71%29.92 "HgN/A
4:00 pm45 °FPassing clouds.10 mph71%29.92 "HgN/A
3:00 pm45 °FPartly sunny.12 mph76%29.92 "HgN/A
2:30 pm45 °FBroken clouds.10 mph76%29.92 "HgN/A
2:00 pm45 °FPartly sunny.7 mph76%29.92 "HgN/A
1:30 pm45 °FScattered clouds.9 mph76%29.92 "HgN/A
1:00 pm45 °FPassing clouds.9 mph81%29.92 "HgN/A
12:30 pm45 °FPassing clouds.12 mph76%29.92 "HgN/A
12:00 pm45 °FSunny.12 mph76%29.95 "Hg10 mi
11:30 am45 °FSunny.10 mph76%29.95 "Hg10 mi
11:00 am45 °FPassing clouds.8 mph87%29.95 "HgN/A
10:30 am43 °FPassing clouds.10 mph93%29.95 "HgN/A
9:30 am43 °FPassing clouds.8 mph93%29.95 "Hg6 mi
9:00 am41 °FClear.9 mph100%29.95 "Hg5 mi
Weather by CustomWeather, © 2017

See weather overviewHow to use our weather pages